YAMAL 402

导读

YAMAL 402(亚马尔-402)是由独立国家联合体(CIS)成员国俄罗斯发射的通信卫星,由俄罗斯天然气工业股份公司下属航天系统公司定制。该卫星于莫斯科时间2012年12月8日由“质子-M”运载火箭发射,因火箭加速器故障未能进入预定轨道,原计划在东经55度同步轨道运行15年,为俄、西欧、中东、北非等区域提供通信转播服务。

基本信息
目录编号:
39022
目录名称:
YAMAL 402
国际标识:
2012-070A
轨道中心:
EARTH
卫星名称:
YAMAL 402
卫星全名:
--
卫星状态:
在轨 (已飞行4943 天)
发射日期:
2012-12-08 UTC
国别 :
俄罗斯(独联体) (CIS)
星等 :
--
轨道信息
数据来源 国际轨道数据 AOE轨道数据
星历时间 2026-06-20T19:22:46+0800
19小时前
查看轨道信息
2026-06-21T09:00:00+0800
6小时前
查看轨道信息
半长轴 42164.924km 42164.784km
偏心率 0.0003805 0.0003885
轨道倾角 1.274° 1.276°
近地点辐角 2.885° 2.147°
升交点赤经 84.120° 84.121°
平近点角 47.263° 252.865°
近地点 35770.743km 35770.265km
远地点 35802.831km 35803.029km
周期 1436.107分钟 1436.100分钟
每日圈数 1.002711 1.002716
详细信息
使用方式:
暂无
2D轨道图
3D轨道图
轨道高度分析图
轨道倾角分析图
轨道综合分析图
查看轨道综合分析图